[Iaude] MPEC S30: 2016 RB41

mpec at si.edu mpec at si.edu
Thu Sep 29 16:10:30 EDT 2016


M.P.E.C. 2016-S30                                Issued 2016 Sept. 24, 18:12 UT
 
     The Minor Planet Electronic Circulars contain information on unusual
         minor planets and routine data on comets.  They are published
    on behalf of Division F of the International Astronomical Union by the
          Minor Planet Center, Smithsonian Astrophysical Observatory,
                          Cambridge, MA 02138, U.S.A.

             Prepared using the Tamkin Foundation Computer Network

                              MPC at CFA.HARVARD.EDU
            URL http://www.minorplanetcenter.net/    ISSN 1523-6714


                                   2016 RB41
 
Observations:
     K16R41B* C2016 09 12.51611 00 03 53.175+12 31 06.64         21.9 wLES030F51
     K16R41B  C2016 09 12.52949 00 03 55.681+12 31 18.37         21.9 wLES030F51
     K16R41B  C2016 09 12.54300 00 03 58.213+12 31 30.12         22.0 wLES030F51
     K16R41B  C2016 09 12.55651 00 04 00.757+12 31 41.89         21.5 wLES030F51
     K16R41B KC2016 09 13.21027200 06 17.90 +12 41 04.8          22.0 VuES030H21
     K16R41B KC2016 09 13.22243000 06 20.23 +12 41 15.8          21.8 VuES030H21
     K16R41B KC2016 09 13.24147800 06 23.88 +12 41 32.6          22.3 VuES030H21
     K16R41B ^C2016 09 13.32401 00 06 40.72 +12 42 50.5          20.7 RoES030695
     K16R41B ^C2016 09 13.33353 00 06 42.54 +12 42 58.9          21.3 RoES030695
     K16R41B ^C2016 09 13.34305 00 06 44.36 +12 43 07.2          20.2 RoES030695
     K16R41B KC2016 09 21.22152000 35 42.28 +14 22 24.5          22.1 VuES030H21
     K16R41B KC2016 09 21.23388800 35 44.92 +14 22 32.4          22.0 VuES030H21
     K16R41B KC2016 09 21.24544000 35 47.39 +14 22 39.8          21.9 VuES030H21
     K16R41B  C2016 09 21.33649 00 36 07.97 +14 23 42.8          20.2 RoES030926
     K16R41B  C2016 09 21.34370 00 36 09.49 +14 23 47.6          20.0 RoES030926
     K16R41B KC2016 09 22.20101 00 39 30.92 +14 32 20.9          21.8 RoES030291
     K16R41B KC2016 09 22.20236 00 39 31.18 +14 32 21.6          21.8 RoES030291
     K16R41B KC2016 09 22.20369 00 39 31.46 +14 32 22.3                oES030291
     K16R41B KC2016 09 24.46481 00 48 17.07 +14 52 44.7          21.5 RoES030291
     K16R41B KC2016 09 24.46822 00 48 17.81 +14 52 45.9                oES030291
     K16R41B KC2016 09 24.47160 00 48 18.57 +14 52 47.6                oES030291
 
Observer details:
291 LPL/Spacewatch II.  Observers R. A. Mastaler, T. H. Bressi.  1.8-m f/2.7
    reflector + CCD.
695 Kitt Peak.  Observer R. S. McMillan.  2.3-m f/9 reflector + CCD.
926 Tenagra II Observatory.  Observers M. Schwartz, P. R. Holvorcem.  Measurer
    M. Schwartz.  0.81-m f/7 Ritchey-Chretien + CCD.
F51 Pan-STARRS 1, Haleakala.  Observers B. Gibson, T. Goggia, S. Kahale,
    A. Schultz, M. Willman.  Measurers K. Chambers, S. Chastel, L. Denneau,
    H. Flewelling, M. Huber, E. Lilly, E. Magnier, R. Wainscoat, C. Waters,
    R. Weryk.  1.8-m Ritchey-Chretien + CCD.
H21 Astronomical Research Observatory, Westfield.  Observer R. Holmes.
    Measurers S. Foglia, L. Buzzi, T. Linder, R. Holmes.  1.3-m f/4.0
    astrograph + CCD.
 
Orbital elements:
2016 RB41                                                Earth MOID = 0.1605 AU
Epoch 2016 July 31.0 TT = JDT 2457600.5                 MPC
M 343.47800              (2000.0)            P               Q
n   0.25831502     Peri.  160.26892     +0.97797649     -0.20719569
a   2.4417598      Node   211.72230     +0.18449844     +0.91452308
e   0.5247939      Incl.    2.74033     +0.09758236     +0.34744420
P   3.82           H   24.1           G   0.15           U   6
Residuals in seconds of arc
160912 F51  0.0   0.3-    160913 695  0.2-  0.3+    160921 926  0.0   0.1+
160912 F51  0.0   0.2-    160913 695  0.1-  0.4+    160922 291  0.2+  0.2+
160912 F51  0.0   0.0     160913 695  0.1+  0.4+    160922 291  0.3-  0.0
160912 F51  0.0   0.1+    160921 H21  0.3+  0.1+    160922 291  0.5-  0.1-
160913 H21  0.2+  0.1+    160921 H21  0.1+  0.0     160924 291  0.2+  0.1+
160913 H21  0.1+  0.3+    160921 H21  0.1+  0.1+    160924 291  0.1-  0.2-
160913 H21  0.0   0.2+    160921 926  0.2+  0.3-    160924 291  0.0   0.0

Ephemeris:
2016 RB41                a,e,i = 2.44, 0.52, 3                   q = 1.1603
Date    TT    R. A. (2000) Decl.     Delta      r     Elong.  Phase     V
2016 08 25    23 12 06.4 +07 18 25   0.2479  1.2430   157.2    18.4    22.5
...
2016 09 09    23 52 20.2 +11 36 56   0.1953  1.1927   160.1    16.7    21.8
...
2016 09 17    00 19 47.1 +13 33 30   0.1779  1.1749   161.2    16.0    21.6
...
2016 09 23    00 42 35.0 +14 40 15   0.1697  1.1660   162.1    15.4    21.4
2016 09 24    00 46 29.7 +14 49 09   0.1687  1.1649   162.2    15.2    21.4
2016 09 25    00 50 25.4 +14 57 21   0.1679  1.1640   162.4    15.1    21.4
...
2016 10 01    01 14 02.3 +15 31 24   0.1652  1.1605   163.5    14.2    21.3
...
2016 10 09    01 44 01.7 +15 37 44   0.1682  1.1624   165.4    12.5    21.3
...
2016 10 24    02 28 28.6 +14 31 20   0.1926  1.1854   171.3     7.3    21.4

A. U. Tomatic                (C) Copyright 2016 MPC           M.P.E.C. 2016-S30




More information about the Iaude mailing list